Location: Lansingburgh
(42.7845°N, 73.6696°W)
Time: 06:28:02
(UTC+00:00)

Cosmos 1455 - Pass Details

Date: 24 January 2020
Orbit: 499 x 524 km, 82.5° (Epoch: 17 February)

Event Time Altitude Azimuth Distance (km) Brightness Sun altitude
Rises 23:31:55 0° 346° (NNW) 2,635 5.8 -17.4°
Reaches altitude 10° 23:34:06 10° 341° (NNW) 1,739 5.0 -17.8°
Maximum altitude 23:37:47 49° 266° (W) 662 3.1 -18.4°
Drops below altitude 10° 23:41:24 10° 191° (S) 1,710 5.1 -19.1°
Sets 23:43:32 0° 186° (S) 2,586 5.9 -19.5°
